This demonstration page uses our WeatherBlox Daily Observations layout. Learn more.

Left ArrowRight Arrow

Hourly Observations for January 25, 2016

Temp ( °F °C ) Dew Point ( °F °C ) Humidity (%) Winds ( mph kmh ) Pressure ( in mb ) Visibility ( mi km ) Precip ( " mm )
12:53 am 00:53 Clear 30 -1.1 26 -3.3 85 85 Calm 30.18 1022 10 16 0.00 0.00
1:53 am 01:53 Clear 30 -1.1 26 -3.3 85 85 Calm 30.18 1022 10 16 0.00 0.00
2:53 am 02:53 Clear 24 -4.4 24 -4.4 100 100 Calm 30.19 1022 10 16 0.00 0.00
3:53 am 03:53 Clear 30 -1.1 25 -3.9 82 82 Calm 30.19 1022 10 16 0.00 0.00
4:53 am 04:53 Clear 28 -2.2 24 -4.4 85 85 Calm 30.17 1022 10 16 0.00 0.00
5:53 am 05:53 Clear 27 -2.8 24 -4.4 89 89 Calm 30.20 1023 10 16 0.00 0.00
6:53 am 06:53 Clear 27 -2.8 23 -5 85 85 Calm 30.23 1024 10 16 0.00 0.00
7:53 am 07:53 Sunny 29 -1.7 25 -3.9 85 85 Calm 30.27 1025 10 16 0.00 0.00
8:53 am 08:53 Sunny 31 -0.6 27 -2.8 85 85 Calm 30.29 1026 9 14 0.00 0.00
9:53 am 09:53 Sunny 36 2.2 29 -1.7 76 76 Calm 30.30 1026 10 16 0.00 0.00
10:53 am 10:53 Sunny 43 6.1 30 -1.1 60 60 Calm 30.30 1026 10 16 0.00 0.00
11:53 am 11:53 Sunny 49 9.4 29 -1.7 46 46 Calm 30.29 1026 10 16 0.00 0.00
12:53 pm 12:53 Mostly Sunny 53 11.7 25 -3.9 34 34 SSE 8 13 30.25 1024 10 16 0.00 0.00
1:53 pm 13:53 Sunny 55 12.8 23 -5 29 29 SSW 8 13 30.22 1024 10 16 0.00 0.00
2:53 pm 14:53 Sunny 56 13.3 21 -6.1 26 26 VRB 7 11 30.22 1023 10 16 0.00 0.00
3:53 pm 15:53 Sunny 57 13.9 19 -7.2 23 23 SSW 6 9 30.19 1022 10 16 0.00 0.00
4:53 pm 16:53 Sunny 57 13.9 20 -6.7 24 24 SW 6 9 30.20 1023 10 16 0.00 0.00
5:53 pm 17:53 Sunny 56 13.3 21 -6.1 26 26 SSE 5 7 30.19 1023 10 16 0.00 0.00
6:53 pm 18:53 Clear 49 9.4 25 -3.9 39 39 SE 7 11 30.20 1023 10 16 0.00 0.00
7:53 pm 19:53 Clear 45 7.2 26 -3.3 48 48 Calm 30.21 1023 10 16 0.00 0.00
8:53 pm 20:53 Clear 40 4.4 28 -2.2 63 63 Calm 30.22 1023 10 16 0.00 0.00
9:53 pm 21:53 Clear 38 3.3 28 -2.2 68 68 Calm 30.23 1024 10 16 0.00 0.00
10:53 pm 22:53 Clear 39 3.9 29 -1.7 67 67 Calm 30.23 1024 10 16 0.00 0.00
11:53 pm 23:53 undefined 36 2.2 30 -1.1 79 79 Calm 30.23 1024 10 16 0.00 0.00

Powered by AerisWeather